Location: Sternwarte ZA, Rosenfeld-Brittheim
(48.2889°N, 8.6789°E)
Time: 12:23:10
(UTC+01:00)

ISS - Pass Details

Date: 22 January 2021
Orbit: 418 x 419 km, 51.6° (Epoch: 20 January)

Event Time Altitude Azimuth Distance (km) Brightness Sun altitude
Rises 20:17:08 0° 269° (W) 2,363 1.2 -31.0°
Reaches altitude 10° 20:19:17 10° 275° (W) 1,500 -0.1 -31.3°
Enters shadow 20:19:37 12° 277° (W) 1,365 -0.3 -31.4°
